Simultaneous Nadir Overpasses (SNOs) Predictions

Prediction of SNOs between NOAA-19 and TERRA Satellite Orbit:

Table of predicted SNOs for the next 14.0 days since TLE Epoch: 1/4/2013
Index Date (NOAA-19) Time (NOAA-19) Lat,Lon (NOAA-19) SZA (NOAA-19 ) Date (TERRA) Time (TERRA) Lat,Lon (TERRA) SZA (TERRA ) Distance(km) Time Diff (sec)
1 01/04/2013 22:49:06 -69.20, 17.30 88.29 01/04/2013 22:49:22 -69.18, 17.32 88.31 2.25 16
2 01/04/2013 23:40:06 68.71,-174.81 91.22 01/04/2013 23:38:54 68.80,-175.52 91.31 30.46 72
3 01/07/2013 02:42:53 69.90, 137.87 92.18 01/07/2013 02:44:02 69.77, 139.40 92.03 60.50 69
4 01/07/2013 03:33:35 -69.19, -53.80 88.56 01/07/2013 03:33:41 -69.17, -53.77 88.58 2.72 6
5 01/07/2013 04:24:28 68.33, 114.60 90.57 01/07/2013 04:23:20 68.39, 112.90 90.65 70.00 68
6 01/09/2013 07:27:15 69.53, 67.32 91.51 01/09/2013 07:28:27 69.42, 67.85 91.38 24.14 72
7 01/09/2013 08:18:03 -69.13,-124.83 88.91 01/09/2013 08:18:00 -69.15,-124.88 88.90 2.52 3
8 01/11/2013 12:11:39 69.27, -3.41 90.91 01/11/2013 12:12:48 69.28, -3.42 90.91 0.51 69
9 01/11/2013 13:02:32 -69.13, 164.06 89.25 01/11/2013 13:02:19 -69.12, 164.01 89.26 2.52 13
10 01/13/2013 16:56:08 69.28, -74.54 90.56 01/13/2013 16:57:06 69.30, -74.47 90.56 2.99 58
11 01/13/2013 17:47:01 -69.13, 92.94 89.61 01/13/2013 17:46:37 -69.14, 92.96 89.60 0.68 24
12 01/15/2013 21:40:36 69.25,-145.60 90.13 01/15/2013 21:41:25 69.25,-145.60 90.12 0.10 49
13 01/15/2013 22:31:29 -69.09, 21.90 90.05 01/15/2013 22:30:56 -69.10, 21.83 90.04 2.79 33
14 01/18/2013 02:25:04 69.23, 143.33 89.67 01/18/2013 02:25:43 69.25, 143.33 89.70 3.25 39
15 01/18/2013 03:15:58 -69.10, -49.23 90.47 01/18/2013 03:15:14 -69.10, -49.24 90.47 0.37 44




NCC Satellite Simultaneous Nadir Overpasses (SNOs) Prediction Service
